[[{"header":{"parameterUnit":"m.s-1","parameterCategory":2,"la1":30.2992,"la2":30.254,"lo1":-89.0895,"lo2":-89.0443,"dy":0.0025,"dx":0.0025,"nx":19,"ny":19,"refTime":"2026-05-06T09:00:00:Z","depth":"0","parameterNumber":2,"parameterNumberName":"U-component_of_CURRENTS"},"data":[0,0,0,0.1145,0.1145,0.1155,0.1156,0.1262,0.1263,0,0,0,0,0,0,0,0,0,0,0,0.1142,0.1142,0.1145,0.1145,0.1155,0.1156,0.1262,0.1263,0,0,0,0,0,0,0,0,0,0,0,0.1142,0.1142,0.1142,0.1145,0.1155,0.1156,0.1262,0.1233,0,0,0,0,0,0,0,0,0,0,0.1212,0.1193,0.1142,0.1142,0.1145,0.1155,0.1156,0.1231,0.1235,0.1281,0,0.1275,0,0.127,0.1272,0.1272,0,0,0,0.1154,0.1189,0.119,0.1142,0.1145,0.1155,0.1153,0.1232,0.1237,0.1287,0.1276,0.1279,0.1271,0.1273,0.1273,0.1357,0.1357,0,0,0.1153,0.1151,0.1187,0.1193,0.114,0.1153,0.1153,0.1234,0.124,0.1276,0.1282,0.1273,0.1274,0.1274,0.1357,0.1357,0,0,0,0.1145,0.1151,0.1148,0.1189,0.1183,0.1153,0.1154,0.1236,0.1234,0.1283,0.1275,0.1274,0.1276,0.1357,0.1357,0.1331,0,0,0,0.1145,0.1145,0.1148,0.1148,0.118,0.1197,0.1154,0.1228,0.1237,0.1274,0.1274,0.1277,0.1357,0.1357,0.1332,0.1322,0,0,0,0.1143,0.1145,0.1143,0.1148,0.1147,0.1194,0.1197,0.123,0.1233,0.1272,0.1277,0.1357,0.1357,0.1332,0.1324,0.1339,0,0,0,0.1146,0.1138,0.1143,0.1135,0.1147,0.1155,0.1197,0.1215,0.1243,0.1275,0.1357,0.1357,0.1333,0.1324,0.1339,0.1313,0.1309,0,0,0.1138,0.1137,0.1133,0.1137,0.1131,0.1154,0.117,0.1225,0.1262,0.1339,0.1341,0.1331,0.1324,0.1339,0.131,0.1306,0,0,0,0.1131,0.1124,0.1124,0.1122,0.1132,0.1153,0.1194,0.1223,0.128,0.1277,0.1338,0.1334,0.1344,0.1329,0.1327,0.1308,0.1357,0.1357,0.1357,0.1123,0.112,0.1114,0.1116,0.1125,0.1159,0.1186,0.1236,0.1273,0.129,0.1317,0.1316,0.1299,0.1297,0.1277,0.1321,0.1321,0.1321,0.1321,0.1111,0.1111,0.1109,0.1102,0.1123,0.1143,0.12,0.1226,0.1287,0.1302,0.1314,0.1307,0.1292,0.1273,0.1319,0.132,0.132,0.132,0.132,0.1112,0.1113,0.1103,0.11,0.1112,0.1141,0.118,0.1224,0.1267,0.128,0.1288,0.1288,0.1269,0.1292,0.1292,0.1292,0.1292,0.1292,0.1292,0.1127,0.1116,0.1109,0.1103,0.1105,0.1128,0.1178,0.1212,0.1246,0.1262,0.1263,0.1262,0.1308,0.1307,0.1293,0.1293,0.1293,0.1293,0.1293,0.114,0.113,0.1115,0.1111,0.1116,0.1139,0.1179,0.1216,0.1242,0.1249,0.1222,0.1262,0.1274,0.1276,0.1275,0.1253,0.1253,0.1253,0.1253,0.1153,0.1147,0.112,0.1111,0.1123,0.1145,0.1182,0.1202,0.1205,0.119,0.1196,0.1183,0.1185,0.1192,0.1196,0.1193,0.1152,0.1151,0.1151,0.1168,0.115,0.1133,0.1109,0.1118,0.1154,0.1176,0.1164,0.1144,0.1147,0.1174,0.1178,0.116,0.1165,0.1177,0.1184,0.1181,0,0]},{"header":{"parameterUnit":"m.s-1","parameterCategory":2,"la1":30.2992,"la2":30.254,"lo1":-89.0895,"lo2":-89.0443,"dy":0.0025,"dx":0.0025,"nx":19,"ny":19,"refTime":"2026-05-06T09:00:00:Z","depth":"0","parameterNumber":3,"parameterNumberName":"V-component_of_CURRENTS"},"data":[0,0,0,0.043,0.0431,0.048,0.048,0.0541,0.0542,0,0,0,0,0,0,0,0,0,0,0,0.0412,0.0413,0.043,0.0431,0.048,0.048,0.0541,0.0542,0,0,0,0,0,0,0,0,0,0,0,0.0412,0.0413,0.0413,0.0431,0.048,0.048,0.0541,0.0505,0,0,0,0,0,0,0,0,0,0,0.0457,0.0436,0.0412,0.0413,0.0431,0.048,0.048,0.0503,0.0507,0.0519,0,0.0528,0,0.0537,0.0546,0.0546,0,0,0,0.0431,0.0432,0.0452,0.0413,0.0432,0.0479,0.0458,0.0505,0.051,0.0525,0.0529,0.0531,0.0538,0.0547,0.0547,0.0615,0.0615,0,0,0.0428,0.0416,0.0448,0.0454,0.0447,0.0456,0.0459,0.0508,0.051,0.0529,0.0533,0.0539,0.0547,0.0547,0.0614,0.0615,0,0,0,0.042,0.0414,0.0432,0.0452,0.0461,0.0457,0.0461,0.0508,0.0515,0.0534,0.054,0.0547,0.0548,0.0614,0.0614,0.0641,0,0,0,0.0419,0.041,0.0431,0.0423,0.046,0.0484,0.046,0.0512,0.0518,0.054,0.0547,0.0549,0.0614,0.0614,0.0639,0.0655,0,0,0,0.041,0.0408,0.0416,0.0422,0.0445,0.0483,0.0494,0.0513,0.0522,0.0546,0.0549,0.0613,0.0614,0.0638,0.0653,0.0702,0,0,0,0.0393,0.0404,0.0416,0.0434,0.0444,0.0484,0.0494,0.0524,0.0545,0.0548,0.0614,0.0614,0.0638,0.0652,0.07,0.0781,0.0796,0,0,0.0397,0.0404,0.0416,0.0429,0.0464,0.0477,0.0519,0.0549,0.056,0.0597,0.0599,0.064,0.0653,0.0702,0.0819,0.0834,0,0,0,0.0412,0.0419,0.0433,0.0457,0.0488,0.0527,0.0551,0.0571,0.0614,0.0576,0.0646,0.0654,0.0684,0.0728,0.074,0.082,0.0617,0.0617,0.0617,0.0392,0.0418,0.0443,0.0482,0.0511,0.0561,0.06,0.0633,0.0632,0.0658,0.0679,0.074,0.0788,0.0797,0.0879,0.0682,0.0682,0.0682,0.0682,0.0398,0.0415,0.0454,0.0487,0.0536,0.0575,0.0651,0.067,0.0739,0.0714,0.0742,0.0759,0.0812,0.0894,0.0684,0.0684,0.0683,0.0683,0.0683,0.0381,0.0395,0.042,0.0475,0.0532,0.0594,0.0697,0.0735,0.0766,0.0801,0.0864,0.0865,0.0935,0.0819,0.0819,0.082,0.082,0.082,0.082,0.0352,0.0381,0.0412,0.047,0.0516,0.0605,0.0729,0.0807,0.0891,0.091,0.0911,0.0978,0.0782,0.0775,0.0825,0.0824,0.0823,0.0823,0.0823,0.0339,0.0351,0.04,0.0443,0.0563,0.0713,0.0806,0.1001,0.105,0.1108,0.1149,0.0978,0.0984,0.0975,0.0972,0.1071,0.1071,0.1071,0.1071,0.0324,0.0336,0.0407,0.0483,0.0603,0.0763,0.1044,0.1219,0.1313,0.1344,0.1296,0.1287,0.1274,0.1294,0.1279,0.1281,0.1456,0.1456,0.1457,0.0324,0.0347,0.0399,0.0483,0.0625,0.0862,0.1181,0.149,0.1556,0.1477,0.1396,0.1379,0.1366,0.1337,0.1363,0.1334,0.1335,0,0]}],[{"header":{"parameterUnit":"m.s-1","parameterCategory":2,"la1":30.2992,"la2":30.254,"lo1":-89.0895,"lo2":-89.0443,"dy":0.0025,"dx":0.0025,"nx":19,"ny":19,"refTime":"2026-05-06T09:00:00:Z","depth":"2","parameterNumber":2,"parameterNumberName":"U-component_of_CURRENTS"},"data":[0,0,0,0.1065,0.1065,0.108,0.108,0.1183,0.1184,0,0,0,0,0,0,0,0,0,0,0,0.1061,0.1061,0.1065,0.1065,0.108,0.108,0.1183,0.1184,0,0,0,0,0,0,0,0,0,0,0,0.1061,0.1061,0.1061,0.1065,0.108,0.108,0.1183,0.1153,0,0,0,0,0,0,0,0,0,0,0.1129,0.1111,0.1061,0.1061,0.1065,0.108,0.108,0.115,0.1155,0.1198,0,0.1193,0,0.1189,0.1192,0.1193,0,0,0,0.1074,0.1108,0.1109,0.1061,0.1065,0.108,0.1076,0.1152,0.1157,0.1204,0.1194,0.1197,0.1191,0.1193,0.1194,0.1274,0.1274,0,0,0.1073,0.1072,0.1105,0.1111,0.1062,0.1075,0.1076,0.1154,0.116,0.1194,0.1199,0.1192,0.1194,0.1195,0.1274,0.1274,0,0,0,0.1065,0.1071,0.1069,0.1108,0.1103,0.1075,0.1076,0.1157,0.1155,0.12,0.1194,0.1194,0.1196,0.1274,0.1274,0.1249,0,0,0,0.1065,0.1066,0.1068,0.1069,0.11,0.1119,0.1077,0.1149,0.1158,0.1193,0.1194,0.1197,0.1274,0.1274,0.1249,0.1241,0,0,0,0.1062,0.1066,0.1064,0.1068,0.107,0.1117,0.1119,0.1151,0.1154,0.1193,0.1197,0.1274,0.1274,0.125,0.1242,0.1257,0,0,0,0.1065,0.1059,0.1064,0.1057,0.107,0.1076,0.1118,0.1137,0.1165,0.1195,0.1274,0.1274,0.125,0.1243,0.1257,0.1221,0.1217,0,0,0.1058,0.1058,0.1053,0.1057,0.1051,0.1075,0.109,0.1145,0.1182,0.1256,0.1257,0.1249,0.1242,0.1257,0.1218,0.1214,0,0,0,0.1051,0.1043,0.1043,0.1041,0.1051,0.1071,0.1113,0.1142,0.1199,0.1196,0.1255,0.1252,0.1262,0.1241,0.1238,0.1273,0.1273,0.1273,0.1273,0.1044,0.104,0.1033,0.1033,0.1042,0.1075,0.1102,0.1153,0.119,0.1209,0.1235,0.1235,0.1212,0.1209,0.1239,0.1239,0.1239,0.1239,0.1239,0.1032,0.1031,0.1027,0.1019,0.104,0.106,0.1115,0.1142,0.1204,0.1221,0.1232,0.122,0.1204,0.1237,0.1238,0.1238,0.1238,0.1238,0.1238,0.1034,0.1034,0.1024,0.102,0.1031,0.1059,0.1097,0.1141,0.1186,0.1199,0.1201,0.1201,0.1227,0.1213,0.1213,0.1213,0.1213,0.1213,0.1213,0.1051,0.1039,0.1032,0.1024,0.1026,0.1048,0.1097,0.113,0.1161,0.1176,0.1176,0.1227,0.1228,0.1227,0.1213,0.1213,0.1213,0.1213,0.1213,0.1064,0.1054,0.1039,0.1035,0.1037,0.1045,0.1095,0.1126,0.1154,0.1157,0.117,0.1171,0.1182,0.1184,0.1183,0.1159,0.1159,0.1159,0.1159,0.1078,0.1072,0.1045,0.1034,0.1043,0.1045,0.1044,0.1004,0.1032,0.1019,0.1024,0.1004,0.101,0.101,0.1016,0.1011,0.0943,0.0942,0.0942,0.1094,0.1076,0.1059,0.1032,0.1037,0.104,0.0983,0.0829,0.0813,0.093,0.0958,0.115,0.1136,0.1138,0.1153,0.1158,0.1156,0,0]},{"header":{"parameterUnit":"m.s-1","parameterCategory":2,"la1":30.2992,"la2":30.254,"lo1":-89.0895,"lo2":-89.0443,"dy":0.0025,"dx":0.0025,"nx":19,"ny":19,"refTime":"2026-05-06T09:00:00:Z","depth":"2","parameterNumber":3,"parameterNumberName":"V-component_of_CURRENTS"},"data":[0,0,0,0.0357,0.0358,0.0409,0.041,0.0471,0.0471,0,0,0,0,0,0,0,0,0,0,0,0.0339,0.034,0.0357,0.0359,0.0409,0.041,0.0471,0.0471,0,0,0,0,0,0,0,0,0,0,0,0.0339,0.034,0.034,0.0359,0.0409,0.041,0.0471,0.0433,0,0,0,0,0,0,0,0,0,0,0.0384,0.0363,0.034,0.034,0.0359,0.0409,0.041,0.0431,0.0435,0.0447,0,0.0456,0,0.0466,0.0475,0.0476,0,0,0,0.0358,0.036,0.0379,0.034,0.0359,0.0409,0.0386,0.0434,0.0438,0.0452,0.0457,0.046,0.0467,0.0476,0.0476,0.0545,0.0546,0,0,0.0356,0.0344,0.0376,0.0382,0.0375,0.0385,0.0388,0.0437,0.0439,0.0457,0.0461,0.0468,0.0476,0.0477,0.0545,0.0545,0,0,0,0.0348,0.0342,0.036,0.0379,0.0389,0.0386,0.039,0.0437,0.0445,0.0462,0.0469,0.0477,0.0477,0.0545,0.0545,0.0573,0,0,0,0.0346,0.0337,0.0358,0.0351,0.0388,0.0413,0.0389,0.0441,0.0447,0.0468,0.0477,0.0478,0.0544,0.0545,0.0571,0.0588,0,0,0,0.0337,0.0336,0.0344,0.0351,0.0374,0.0413,0.0423,0.0443,0.0451,0.0476,0.0478,0.0544,0.0545,0.057,0.0585,0.0633,0,0,0,0.032,0.0332,0.0344,0.0363,0.0373,0.0414,0.0423,0.0454,0.0475,0.0477,0.0544,0.0545,0.057,0.0584,0.0631,0.0696,0.0711,0,0,0.0325,0.0332,0.0345,0.0357,0.0393,0.0407,0.045,0.0481,0.0491,0.0527,0.0529,0.0572,0.0585,0.0633,0.0739,0.0752,0,0,0,0.0341,0.0349,0.0363,0.0387,0.0418,0.0458,0.0483,0.0503,0.0547,0.0507,0.0579,0.0587,0.0616,0.0651,0.0662,0.0549,0.0549,0.0548,0.0548,0.0322,0.0349,0.0375,0.0413,0.0443,0.0494,0.0534,0.0567,0.0566,0.0593,0.0614,0.0677,0.0714,0.0723,0.0618,0.0618,0.0618,0.0618,0.0618,0.0331,0.0348,0.0387,0.0421,0.0471,0.0511,0.0587,0.0607,0.0676,0.0652,0.0679,0.0685,0.0736,0.0621,0.062,0.062,0.062,0.062,0.0619,0.0315,0.0329,0.0354,0.0411,0.0469,0.0532,0.0634,0.0672,0.0704,0.074,0.0791,0.0791,0.0702,0.0757,0.0757,0.0758,0.0758,0.0758,0.0758,0.0287,0.0316,0.0349,0.0408,0.0454,0.0544,0.0667,0.0743,0.0821,0.0836,0.0837,0.0724,0.0719,0.0711,0.0763,0.0762,0.0761,0.0761,0.0761,0.0275,0.0287,0.0337,0.038,0.0501,0.0639,0.0739,0.0923,0.0972,0.1024,0.0902,0.0897,0.09,0.0892,0.0888,0.0983,0.0983,0.0983,0.0983,0.0261,0.0273,0.0343,0.042,0.054,0.0685,0.0918,0.1009,0.1039,0.0991,0.099,0.0957,0.0949,0.0952,0.0942,0.0937,0.1045,0.1044,0.1044,0.0261,0.0284,0.0336,0.042,0.0561,0.0771,0.0997,0.1063,0.1019,0.104,0.0928,0.1001,0.095,0.0938,0.0937,0.0923,0.0913,0,0]}],[{"header":{"parameterUnit":"m.s-1","parameterCategory":2,"la1":30.2992,"la2":30.254,"lo1":-89.0895,"lo2":-89.0443,"dy":0.0025,"dx":0.0025,"nx":19,"ny":19,"refTime":"2026-05-06T09:00:00:Z","depth":"4","parameterNumber":2,"parameterNumberName":"U-component_of_CURRENTS"},"data":[0,0,0,0.0301,0.0302,0.037,0.0371,0.0423,0.0423,0,0,0,0,0,0,0,0,0,0,0,0.0287,0.0288,0.0301,0.0302,0.037,0.0371,0.0423,0.0423,0,0,0,0,0,0,0,0,0,0,0,0.0287,0.0287,0.0288,0.0302,0.037,0.0371,0.0423,0.0381,0,0,0,0,0,0,0,0,0,0,0.032,0.0313,0.0287,0.0288,0.0303,0.037,0.0371,0.038,0.0384,0.038,0,0.0397,0,0.0404,0.0425,0.0425,0,0,0,0.0308,0.031,0.0323,0.0288,0.0303,0.037,0.0341,0.0383,0.0387,0.0385,0.0398,0.04,0.0404,0.0426,0.0426,0.0461,0.0461,0,0,0.0305,0.0303,0.032,0.0326,0.0329,0.0339,0.0343,0.0386,0.0396,0.0398,0.0401,0.0405,0.0426,0.0426,0.0461,0.0461,0,0,0,0.0289,0.03,0.0313,0.0324,0.0335,0.0341,0.0346,0.0395,0.0398,0.0402,0.0406,0.0426,0.0426,0.0461,0.0461,0.048,0,0,0,0.0287,0.0291,0.0312,0.0312,0.0334,0.037,0.0354,0.0395,0.04,0.0406,0.0426,0.0427,0.0461,0.0461,0.048,0.0477,0,0,0,0.0282,0.029,0.0299,0.0311,0.0336,0.037,0.0377,0.0397,0.0402,0.0425,0.0427,0.0461,0.0461,0.0479,0.0476,0.049,0,0,0,0.0275,0.0275,0.03,0.0297,0.0336,0.0351,0.0377,0.0403,0.0424,0.0426,0.0461,0.0461,0.0478,0.0476,0.049,0.0404,0,0,0,0.0261,0.0274,0.0268,0.029,0.0296,0.0341,0.0358,0.0404,0.0427,0.0445,0.0446,0.048,0.0476,0.049,0.0426,0,0,0,0,0.0252,0.0255,0.0258,0.0274,0.0294,0.0328,0.0373,0.0409,0.0464,0.044,0.0482,0.0479,0.0487,0.0435,0.0463,0.0463,0.0463,0.0463,0.0463,0.0248,0.0248,0.024,0.0249,0.0269,0.033,0.0368,0.0427,0.0451,0.049,0.0497,0.0521,0.0467,0.0504,0.0504,0.0504,0.0505,0.0505,0.0505,0.0225,0.0215,0.0229,0.0226,0.0266,0.0305,0.0376,0.0426,0.0503,0.0518,0.0526,0.0461,0.0507,0.0506,0.0506,0.0506,0.0506,0.0505,0.0505,0.0224,0.0214,0.0218,0.0225,0.026,0.031,0.0359,0.0443,0.0509,0.0535,0.049,0.0532,0.0528,0.0553,0.0553,0.0553,0.0553,0.0553,0.0553,0.0222,0.0213,0.0213,0.0224,0.0237,0.0287,0.0377,0.0412,0.0486,0.0495,0.0549,0.0537,0.0536,0.0531,0.0554,0.0554,0.0554,0.0554,0.0554,0.0194,0.0209,0.0199,0.0201,0.0213,0.022,0.0311,0.0373,0.0413,0.0427,0.047,0.0474,0.0458,0.0458,0.045,0.045,0.0449,0.0448,0,0.0185,0.0186,0.0165,0.0144,0.0131,0.0162,0.0188,0.0247,0.0327,0.0321,0.0377,0.0422,0.0426,0.0401,0.04,0.0386,0,0,0,0.0157,0.0157,0.0129,0.0111,0.0067,0.0115,0.0188,0.0199,0.0345,0.0344,0.0422,0.0429,0.0453,0.0557,0.054,0.0538,0.053,0,0]},{"header":{"parameterUnit":"m.s-1","parameterCategory":2,"la1":30.2992,"la2":30.254,"lo1":-89.0895,"lo2":-89.0443,"dy":0.0025,"dx":0.0025,"nx":19,"ny":19,"refTime":"2026-05-06T09:00:00:Z","depth":"4","parameterNumber":3,"parameterNumberName":"V-component_of_CURRENTS"},"data":[0,0,0,0.0101,0.0102,0.0165,0.0165,0.0229,0.023,0,0,0,0,0,0,0,0,0,0,0,0.0078,0.0079,0.0101,0.0102,0.0165,0.0165,0.0229,0.023,0,0,0,0,0,0,0,0,0,0,0,0.0078,0.0078,0.0079,0.0102,0.0165,0.0165,0.0229,0.0186,0,0,0,0,0,0,0,0,0,0,0.0128,0.0108,0.0078,0.0079,0.0103,0.0165,0.0165,0.0185,0.0189,0.0195,0,0.0204,0,0.0218,0.0233,0.0234,0,0,0,0.0105,0.0104,0.0121,0.0079,0.0103,0.0165,0.0138,0.0187,0.0192,0.0201,0.0205,0.0208,0.0219,0.0234,0.0234,0.0329,0.0329,0,0,0.0102,0.0091,0.0118,0.0124,0.0119,0.0135,0.0139,0.0191,0.0195,0.0206,0.021,0.022,0.0234,0.0235,0.0328,0.0329,0,0,0,0.009,0.0088,0.0104,0.0121,0.0134,0.0137,0.0142,0.0193,0.0198,0.021,0.0221,0.0235,0.0235,0.0327,0.0328,0.0365,0,0,0,0.0088,0.0081,0.0102,0.0097,0.0133,0.0166,0.0143,0.0195,0.0201,0.022,0.0235,0.0236,0.0327,0.0328,0.0362,0.0373,0,0,0,0.0075,0.008,0.0087,0.0096,0.0122,0.0166,0.0175,0.0196,0.0207,0.0234,0.0236,0.0326,0.0328,0.036,0.0369,0.0396,0,0,0,0.0062,0.0077,0.0086,0.011,0.0121,0.018,0.0174,0.0216,0.0242,0.0235,0.0327,0.0328,0.0359,0.0367,0.0394,0.0329,0,0,0,0.0073,0.0078,0.0093,0.0104,0.0161,0.0172,0.0237,0.0261,0.0267,0.0307,0.031,0.0363,0.0369,0.0395,0.0418,0,0,0,0,0.0092,0.0106,0.0125,0.0161,0.0201,0.0251,0.0277,0.03,0.0348,0.0289,0.0383,0.0386,0.0401,0.0359,0.0336,0.0335,0.0335,0.0335,0.0335,0.009,0.0121,0.016,0.0207,0.0249,0.0311,0.0352,0.039,0.0386,0.042,0.0431,0.0496,0.0455,0.0451,0.0451,0.0452,0.0452,0.0452,0.0452,0.0112,0.0132,0.0187,0.0235,0.0294,0.0353,0.0431,0.0446,0.0509,0.0493,0.0505,0.0419,0.0456,0.0455,0.0455,0.0454,0.0454,0.0454,0.0453,0.0103,0.0117,0.0153,0.0228,0.0308,0.0379,0.0463,0.0512,0.0539,0.0566,0.0518,0.0524,0.0503,0.0572,0.0572,0.0573,0.0573,0.0573,0.0573,0.0069,0.0109,0.0146,0.0226,0.0282,0.0374,0.0486,0.0529,0.0567,0.0556,0.0576,0.0537,0.0533,0.0511,0.0576,0.0575,0.0575,0.0575,0.0575,0.0051,0.0066,0.0122,0.0172,0.0311,0.0382,0.0477,0.0538,0.0577,0.0574,0.055,0.0551,0.0529,0.0526,0.0502,0.0567,0.0566,0.0566,0,0.0026,0.004,0.0116,0.0201,0.031,0.0399,0.0458,0.0511,0.0534,0.0519,0.0573,0.0545,0.0545,0.0518,0.0514,0.0485,0,0,0,0.0013,0.0038,0.0089,0.0187,0.0318,0.0417,0.0483,0.0486,0.0526,0.0534,0.0551,0.0555,0.0562,0.0584,0.0553,0.0548,0.051,0,0]}]]